Zurück zum Katalog

STARLINK-5395

AktivKommunikationVLEO
NORAD 54831·PAYLOAD·🇺🇸 United States

Gestartet Dec 28, 2022 von Cape Canaveral Space Force Station

Loading…

Nächste Überflüge (nächste 24 Stunden)

TLE

AktuellSource: CelesTrak SupGP

Epoche: Sep 14, 2026, 21:59 UTC

1 54831C 22177M   26257.91645833 -.00035432  00000+0 -12836-2 0  2578
2 54831  42.9992 147.3877 0001272 246.5631 102.8294 15.27589837    16

Verfolge STARLINK-5395 in Echtzeit mit AllMySat

Download on the App Store